Year,Month,Day,Hour,Minute,Value (Times are PST for windgust in km/hr)
2011,08,23,00,08,1.60
2011,08,23,00,10,4.80
2011,08,23,00,11,3.20
2011,08,23,00,12,3.20
2011,08,23,00,13,1.60
2011,08,23,00,14,1.60
2011,08,23,00,15,1.60
2011,08,23,00,16,3.20
2011,08,23,00,17,6.40
2011,08,23,00,19,1.60
2011,08,23,00,24,1.60
2011,08,23,00,25,3.20
2011,08,23,00,26,3.20
2011,08,23,00,27,3.20
2011,08,23,00,28,3.20
2011,08,23,00,29,3.20
2011,08,23,00,30,3.20
2011,08,23,00,31,3.20
2011,08,23,00,32,3.20
2011,08,23,00,35,1.60
2011,08,23,00,36,3.20
2011,08,23,00,37,3.20
2011,08,23,00,39,1.60
2011,08,23,00,40,3.20
2011,08,23,00,41,4.80
2011,08,23,00,42,6.40
2011,08,23,00,43,3.20
2011,08,23,00,44,4.80
2011,08,23,00,45,4.80
2011,08,23,00,46,4.80
2011,08,23,00,47,3.20
2011,08,23,00,48,3.20
2011,08,23,00,49,3.20
2011,08,23,00,50,3.20
2011,08,23,00,51,1.60
2011,08,23,00,52,1.60
2011,08,23,00,53,3.20
2011,08,23,00,54,3.20
2011,08,23,00,55,3.20
2011,08,23,00,57,1.60
2011,08,23,00,58,4.80
2011,08,23,00,59,3.20
2011,08,23,01,00,3.20
2011,08,23,01,01,3.20
2011,08,23,01,02,3.20
2011,08,23,01,03,3.20
2011,08,23,01,04,3.20
2011,08,23,01,05,3.20
2011,08,23,01,06,1.60
2011,08,23,01,07,1.60
2011,08,23,01,08,1.60
2011,08,23,01,09,1.60
2011,08,23,01,17,1.60
2011,08,23,01,18,1.60
2011,08,23,01,19,1.60
2011,08,23,01,20,1.60
2011,08,23,01,21,1.60
2011,08,23,01,32,1.60
2011,08,23,01,33,3.20
2011,08,23,01,34,1.60
2011,08,23,01,36,3.20
2011,08,23,01,37,3.20
2011,08,23,01,38,3.20
2011,08,23,01,39,3.20
2011,08,23,01,40,1.60
2011,08,23,01,43,3.20
2011,08,23,01,44,3.20
2011,08,23,01,45,1.60
2011,08,23,01,51,1.60
2011,08,23,01,52,3.20
2011,08,23,01,53,1.60
2011,08,23,01,54,1.60
2011,08,23,01,55,1.60
2011,08,23,01,56,3.20
2011,08,23,01,57,1.60
2011,08,23,01,59,1.60
2011,08,23,02,00,1.60
2011,08,23,02,05,1.60
2011,08,23,02,06,3.20
2011,08,23,02,07,3.20
2011,08,23,02,08,3.20
2011,08,23,02,09,3.20
2011,08,23,02,10,1.60
2011,08,23,02,32,1.60
2011,08,23,02,33,3.20
2011,08,23,02,34,4.80
2011,08,23,02,35,4.80
2011,08,23,02,36,3.20
2011,08,23,02,38,3.20
2011,08,23,02,39,3.20
2011,08,23,02,40,3.20
2011,08,23,02,41,3.20
2011,08,23,02,42,1.60
2011,08,23,02,43,1.60
2011,08,23,02,44,1.60
2011,08,23,02,45,1.60
2011,08,23,02,48,3.20
2011,08,23,02,49,3.20
2011,08,23,02,50,4.80
2011,08,23,02,51,3.20
2011,08,23,03,09,3.20
2011,08,23,03,10,1.60
2011,08,23,03,18,3.20
2011,08,23,03,19,1.60
2011,08,23,03,20,3.20
2011,08,23,03,21,3.20
2011,08,23,03,22,1.60
2011,08,23,03,28,3.20
2011,08,23,03,29,3.20
2011,08,23,03,30,3.20
2011,08,23,03,31,1.60
2011,08,23,03,32,3.20
2011,08,23,03,33,3.20
2011,08,23,03,34,1.60
2011,08,23,03,36,3.20
2011,08,23,03,37,1.60
2011,08,23,03,38,1.60
2011,08,23,04,08,1.60
2011,08,23,04,09,1.60
2011,08,23,04,15,3.20
2011,08,23,04,16,4.80
2011,08,23,04,17,4.80
2011,08,23,04,18,3.20
2011,08,23,04,24,3.20
2011,08,23,04,25,4.80
2011,08,23,04,26,4.80
2011,08,23,04,27,3.20
2011,08,23,04,39,3.20
2011,08,23,04,40,3.20
2011,08,23,04,41,3.20
2011,08,23,04,42,3.20
2011,08,23,04,43,1.60
2011,08,23,04,51,3.20
2011,08,23,04,52,3.20
2011,08,23,04,53,4.80
2011,08,23,04,54,4.80
2011,08,23,04,55,4.80
2011,08,23,04,56,4.80
2011,08,23,04,57,6.40
2011,08,23,04,58,6.40
2011,08,23,04,59,4.80
2011,08,23,05,00,4.80
2011,08,23,05,01,4.80
2011,08,23,05,02,3.20
2011,08,23,05,03,3.20
2011,08,23,05,04,1.60
2011,08,23,05,13,3.20
2011,08,23,05,14,4.80
2011,08,23,05,15,4.80
2011,08,23,05,16,4.80
2011,08,23,05,17,4.80
2011,08,23,05,18,3.20
2011,08,23,05,20,1.60
2011,08,23,05,41,3.20
2011,08,23,05,42,3.20
2011,08,23,05,43,1.60
2011,08,23,05,47,3.20
2011,08,23,05,48,4.80
2011,08,23,05,49,4.80
2011,08,23,06,03,1.60
2011,08,23,06,04,1.60
2011,08,23,06,06,3.20
2011,08,23,06,07,3.20
2011,08,23,06,08,3.20
2011,08,23,06,09,3.20
2011,08,23,06,10,3.20
2011,08,23,06,11,1.60
2011,08,23,06,16,3.20
2011,08,23,06,17,3.20
2011,08,23,06,18,3.20
2011,08,23,06,19,4.80
2011,08,23,06,20,3.20
2011,08,23,06,21,3.20
2011,08,23,06,22,1.60
2011,08,23,06,33,3.20
2011,08,23,06,34,3.20
2011,08,23,06,35,3.20
2011,08,23,06,54,3.20
2011,08,23,06,55,3.20
2011,08,23,06,56,3.20
2011,08,23,06,57,4.80
2011,08,23,06,58,3.20
2011,08,23,06,59,1.60
2011,08,23,07,00,1.60
2011,08,23,07,01,1.60
2011,08,23,07,02,1.60
2011,08,23,07,03,1.60
2011,08,23,07,04,1.60
2011,08,23,07,06,3.20
2011,08,23,07,07,3.20
2011,08,23,07,08,1.60
2011,08,23,07,14,3.20
2011,08,23,07,15,3.20
2011,08,23,07,16,3.20
2011,08,23,07,17,3.20
2011,08,23,07,18,3.20
2011,08,23,07,19,3.20
2011,08,23,07,20,1.60
2011,08,23,07,32,3.20
2011,08,23,07,33,1.60
2011,08,23,07,34,1.60
2011,08,23,07,40,3.20
2011,08,23,07,41,1.60
2011,08,23,08,08,1.60
2011,08,23,08,10,1.60
2011,08,23,08,11,1.60
2011,08,23,08,12,3.20
2011,08,23,08,13,3.20
2011,08,23,08,14,1.60
2011,08,23,08,15,3.20
2011,08,23,08,16,3.20
2011,08,23,08,17,1.60
2011,08,23,08,18,3.20
2011,08,23,08,19,1.60
2011,08,23,08,20,3.20
2011,08,23,08,21,4.80
2011,08,23,08,22,3.20
2011,08,23,08,23,1.60
2011,08,23,08,24,3.20
2011,08,23,08,25,1.60
2011,08,23,08,28,1.60
2011,08,23,08,36,1.60
2011,08,23,08,40,1.60
2011,08,23,08,41,1.60
2011,08,23,08,46,1.60
2011,08,23,08,50,1.60
2011,08,23,08,51,1.60
2011,08,23,08,52,3.20
2011,08,23,08,54,3.20
2011,08,23,08,55,3.20
2011,08,23,08,56,3.20
2011,08,23,08,57,3.20
2011,08,23,08,58,3.20
2011,08,23,08,59,1.60
2011,08,23,09,01,1.60
2011,08,23,09,03,4.80
2011,08,23,09,04,4.80
2011,08,23,09,05,4.80
2011,08,23,09,06,4.80
2011,08,23,09,07,4.80
2011,08,23,09,08,3.20
2011,08,23,09,09,6.40
2011,08,23,09,10,6.40
2011,08,23,09,11,6.40
2011,08,23,09,12,3.20
2011,08,23,09,13,4.80
2011,08,23,09,14,4.80
2011,08,23,09,15,3.20
2011,08,23,09,16,4.80
2011,08,23,09,17,1.60
2011,08,23,09,18,3.20
2011,08,23,09,19,3.20
2011,08,23,09,20,3.20
2011,08,23,09,21,4.80
2011,08,23,09,22,4.80
2011,08,23,09,23,3.20
2011,08,23,09,24,1.60
2011,08,23,09,25,4.80
2011,08,23,09,26,3.20
2011,08,23,09,27,3.20
2011,08,23,09,28,4.80
2011,08,23,09,29,3.20
2011,08,23,09,30,3.20
2011,08,23,09,31,3.20
2011,08,23,09,32,4.80
2011,08,23,09,33,3.20
2011,08,23,09,34,3.20
2011,08,23,09,35,6.40
2011,08,23,09,36,8.10
2011,08,23,09,37,6.40
2011,08,23,09,38,9.60
2011,08,23,09,39,9.60
2011,08,23,09,40,9.60
2011,08,23,09,41,6.40
2011,08,23,09,42,6.40
2011,08,23,09,43,8.10
2011,08,23,09,44,8.10
2011,08,23,09,45,9.60
2011,08,23,09,46,9.60
2011,08,23,09,47,8.10
2011,08,23,09,48,8.10
2011,08,23,09,49,8.10
2011,08,23,09,50,8.10
2011,08,23,09,51,9.60
2011,08,23,09,52,9.60
2011,08,23,09,53,11.30
2011,08,23,09,54,9.60
2011,08,23,09,55,8.10
2011,08,23,09,56,4.80
2011,08,23,09,57,6.40
2011,08,23,09,58,6.40
2011,08,23,09,59,8.10
2011,08,23,10,00,4.80
2011,08,23,10,01,4.80
2011,08,23,10,02,8.10
2011,08,23,10,03,6.40
2011,08,23,10,04,6.40
2011,08,23,10,05,6.40
2011,08,23,10,06,9.60
2011,08,23,10,07,9.60
2011,08,23,10,08,8.10
2011,08,23,10,09,9.60
2011,08,23,10,10,8.10
2011,08,23,10,11,11.30
2011,08,23,10,12,9.60
2011,08,23,10,13,8.10
2011,08,23,10,14,8.10
2011,08,23,10,15,8.10
2011,08,23,10,16,8.10
2011,08,23,10,17,8.10
2011,08,23,10,18,6.40
2011,08,23,10,19,8.10
2011,08,23,10,20,6.40
2011,08,23,10,21,4.80
2011,08,23,10,22,4.80
2011,08,23,10,23,8.10
2011,08,23,10,24,8.10
2011,08,23,10,25,8.10
2011,08,23,10,26,9.60
2011,08,23,10,27,9.60
2011,08,23,10,28,4.80
2011,08,23,10,29,3.20
2011,08,23,10,30,3.20
2011,08,23,10,31,3.20
2011,08,23,10,32,6.40
2011,08,23,10,33,4.80
2011,08,23,10,34,4.80
2011,08,23,10,35,4.80
2011,08,23,10,36,4.80
2011,08,23,10,37,4.80
2011,08,23,10,38,3.20
2011,08,23,10,39,3.20
2011,08,23,10,40,6.40
2011,08,23,10,41,3.20
2011,08,23,10,42,3.20
2011,08,23,10,43,4.80
2011,08,23,10,44,3.20
2011,08,23,10,45,3.20
2011,08,23,10,46,6.40
2011,08,23,10,47,6.40
2011,08,23,10,48,4.80
2011,08,23,10,49,4.80
2011,08,23,10,50,6.40
2011,08,23,10,51,6.40
2011,08,23,10,52,4.80
2011,08,23,10,53,8.10
2011,08,23,10,54,8.10
2011,08,23,10,55,8.10
2011,08,23,10,56,8.10
2011,08,23,10,57,3.20
2011,08,23,10,58,3.20
2011,08,23,10,59,6.40
2011,08,23,11,00,6.40
2011,08,23,11,01,6.40
2011,08,23,11,02,6.40
2011,08,23,11,03,8.10
2011,08,23,11,04,8.10
2011,08,23,11,05,4.80
2011,08,23,11,06,4.80
2011,08,23,11,07,3.20
2011,08,23,11,08,3.20
2011,08,23,11,09,6.40
2011,08,23,11,10,4.80
2011,08,23,11,11,4.80
2011,08,23,11,12,4.80
2011,08,23,11,13,9.60
2011,08,23,11,14,8.10
2011,08,23,11,15,8.10
2011,08,23,11,16,11.30
2011,08,23,11,17,6.40
2011,08,23,11,18,3.20
2011,08,23,11,19,3.20
2011,08,23,11,20,6.40
2011,08,23,11,21,9.60
2011,08,23,11,22,6.40
2011,08,23,11,23,8.10
2011,08,23,11,24,8.10
2011,08,23,11,25,8.10
2011,08,23,11,26,6.40
2011,08,23,11,27,9.60
2011,08,23,11,28,8.10
2011,08,23,11,29,6.40
2011,08,23,11,30,6.40
2011,08,23,11,31,6.40
2011,08,23,11,32,4.80
2011,08,23,11,33,6.40
2011,08,23,11,34,9.60
2011,08,23,11,35,6.40
2011,08,23,11,36,6.40
2011,08,23,11,37,11.30
2011,08,23,11,38,6.40
2011,08,23,11,39,6.40
2011,08,23,11,40,6.40
2011,08,23,11,41,8.10
2011,08,23,11,42,4.80
2011,08,23,11,43,11.30
2011,08,23,11,44,11.30
2011,08,23,11,45,9.60
2011,08,23,11,46,9.60
2011,08,23,11,47,3.20
2011,08,23,11,48,6.40
2011,08,23,11,49,8.10
2011,08,23,11,50,8.10
2011,08,23,11,51,6.40
2011,08,23,11,52,4.80
2011,08,23,11,53,9.60
2011,08,23,11,54,8.10
2011,08,23,11,55,4.80
2011,08,23,11,56,6.40
2011,08,23,11,57,11.30
2011,08,23,11,58,8.10
2011,08,23,11,59,9.60
2011,08,23,12,00,11.30
2011,08,23,12,01,8.10
2011,08,23,12,02,11.30
2011,08,23,12,03,11.30
2011,08,23,12,04,9.60
2011,08,23,12,05,9.60
2011,08,23,12,06,6.40
2011,08,23,12,07,6.40
2011,08,23,12,08,9.60
2011,08,23,12,09,8.10
2011,08,23,12,10,4.80
2011,08,23,12,11,8.10
2011,08,23,12,12,4.80
2011,08,23,12,13,6.40
2011,08,23,12,14,6.40
2011,08,23,12,15,6.40
2011,08,23,12,16,9.60
2011,08,23,12,17,6.40
2011,08,23,12,18,9.60
2011,08,23,12,19,8.10
2011,08,23,12,20,8.10
2011,08,23,12,21,11.30
2011,08,23,12,22,6.40
2011,08,23,12,23,8.10
2011,08,23,12,24,6.40
2011,08,23,12,25,1.60
2011,08,23,12,26,11.30
2011,08,23,12,27,8.10
2011,08,23,12,28,8.10
2011,08,23,12,29,11.30
2011,08,23,12,30,11.30
2011,08,23,12,31,9.60
2011,08,23,12,32,4.80
2011,08,23,12,33,9.60
2011,08,23,12,34,4.80
2011,08,23,12,35,14.50
2011,08,23,12,36,16.10
2011,08,23,12,37,8.10
2011,08,23,12,38,4.80
2011,08,23,12,39,8.10
2011,08,23,12,40,9.60
2011,08,23,12,41,11.30
2011,08,23,12,42,8.10
2011,08,23,12,43,4.80
2011,08,23,12,44,9.60
2011,08,23,12,45,9.60
2011,08,23,12,46,3.20
2011,08,23,12,47,12.90
2011,08,23,12,48,9.60
2011,08,23,12,49,11.30
2011,08,23,12,50,16.10
2011,08,23,12,51,8.10
2011,08,23,12,52,19.30
2011,08,23,12,53,11.30
2011,08,23,12,54,11.30
2011,08,23,12,55,11.30
2011,08,23,12,56,19.30
2011,08,23,12,57,9.60
2011,08,23,12,58,8.10
2011,08,23,12,59,17.70
2011,08,23,13,00,16.10
2011,08,23,13,01,9.60
2011,08,23,13,02,14.50
2011,08,23,13,03,14.50
2011,08,23,13,04,16.10
2011,08,23,13,05,8.10
2011,08,23,13,06,8.10
2011,08,23,13,07,11.30
2011,08,23,13,08,8.10
2011,08,23,13,09,11.30
2011,08,23,13,10,16.10
2011,08,23,13,11,19.30
2011,08,23,13,12,9.60
2011,08,23,13,13,17.70
2011,08,23,13,14,14.50
2011,08,23,13,15,9.60
2011,08,23,13,16,6.40
2011,08,23,13,17,3.20
2011,08,23,13,18,20.90
2011,08,23,13,19,6.40
2011,08,23,13,20,14.50
2011,08,23,13,21,11.30
2011,08,23,13,22,20.90
2011,08,23,13,23,11.30
2011,08,23,13,24,8.10
2011,08,23,13,25,8.10
2011,08,23,13,26,17.70
2011,08,23,13,27,8.10
2011,08,23,13,28,6.40
2011,08,23,13,29,14.50
2011,08,23,13,30,1.60
2011,08,23,13,31,11.30
2011,08,23,13,32,3.20
2011,08,23,13,33,8.10
2011,08,23,13,34,6.40
2011,08,23,13,35,11.30
2011,08,23,13,36,9.60
2011,08,23,13,37,9.60
2011,08,23,13,38,6.40
2011,08,23,13,39,6.40
2011,08,23,13,40,6.40
2011,08,23,13,41,6.40
2011,08,23,13,42,9.60
2011,08,23,13,43,6.40
2011,08,23,13,44,3.20
2011,08,23,13,45,6.40
2011,08,23,13,46,6.40
2011,08,23,13,47,6.40
2011,08,23,13,48,6.40
2011,08,23,13,49,14.50
2011,08,23,13,50,14.50
2011,08,23,13,51,9.60
2011,08,23,13,52,6.40
2011,08,23,13,53,6.40
2011,08,23,13,54,9.60
2011,08,23,13,55,6.40
2011,08,23,13,56,9.60
2011,08,23,13,57,9.60
2011,08,23,13,58,9.60
2011,08,23,13,59,8.10
2011,08,23,14,00,6.40
2011,08,23,14,01,4.80
2011,08,23,14,02,4.80
2011,08,23,14,03,4.80
2011,08,23,14,04,9.60
2011,08,23,14,05,11.30
2011,08,23,14,06,8.10
2011,08,23,14,07,14.50
2011,08,23,14,08,12.90
2011,08,23,14,09,9.60
2011,08,23,14,10,11.30
2011,08,23,14,11,9.60
2011,08,23,14,12,8.10
2011,08,23,14,13,4.80
2011,08,23,14,14,6.40
2011,08,23,14,15,6.40
2011,08,23,14,16,9.60
2011,08,23,14,17,8.10
2011,08,23,14,18,8.10
2011,08,23,14,19,8.10
2011,08,23,14,20,11.30
2011,08,23,14,21,11.30
2011,08,23,14,22,9.60
2011,08,23,14,23,14.50
2011,08,23,14,24,8.10
2011,08,23,14,25,14.50
2011,08,23,14,26,9.60
2011,08,23,14,27,4.80
2011,08,23,14,28,6.40
2011,08,23,14,29,11.30
2011,08,23,14,30,11.30
2011,08,23,14,31,8.10
2011,08,23,14,32,11.30
2011,08,23,14,33,3.20
2011,08,23,14,34,8.10
2011,08,23,14,35,8.10
2011,08,23,14,36,11.30
2011,08,23,14,37,11.30
2011,08,23,14,38,11.30
2011,08,23,14,39,9.60
2011,08,23,14,40,11.30
2011,08,23,14,41,11.30
2011,08,23,14,42,9.60
2011,08,23,14,43,8.10
2011,08,23,14,44,8.10
2011,08,23,14,45,11.30
2011,08,23,14,46,16.10
2011,08,23,14,47,11.30
2011,08,23,14,48,9.60
2011,08,23,14,49,8.10
2011,08,23,14,50,4.80
2011,08,23,14,51,12.90
2011,08,23,14,52,8.10
2011,08,23,14,53,19.30
2011,08,23,14,54,6.40
2011,08,23,14,55,9.60
2011,08,23,14,56,11.30
2011,08,23,14,57,6.40
2011,08,23,14,58,11.30
2011,08,23,14,59,9.60
2011,08,23,15,00,14.50
2011,08,23,15,01,8.10
2011,08,23,15,02,12.90
2011,08,23,15,03,6.40
2011,08,23,15,04,8.10
2011,08,23,15,05,16.10
2011,08,23,15,06,6.40
2011,08,23,15,07,16.10
2011,08,23,15,08,11.30
2011,08,23,15,09,9.60
2011,08,23,15,10,9.60
2011,08,23,15,11,11.30
2011,08,23,15,12,8.10
2011,08,23,15,13,11.30
2011,08,23,15,14,8.10
2011,08,23,15,15,8.10
2011,08,23,15,16,4.80
2011,08,23,15,17,8.10
2011,08,23,15,18,11.30
2011,08,23,15,19,16.10
2011,08,23,15,20,8.10
2011,08,23,15,21,9.60
2011,08,23,15,22,11.30
2011,08,23,15,23,9.60
2011,08,23,15,24,14.50
2011,08,23,15,25,11.30
2011,08,23,15,26,20.90
2011,08,23,15,27,14.50
2011,08,23,15,28,16.10
2011,08,23,15,29,16.10
2011,08,23,15,30,8.10
2011,08,23,15,31,9.60
2011,08,23,15,32,12.90
2011,08,23,15,33,11.30
2011,08,23,15,34,6.40
2011,08,23,15,35,16.10
2011,08,23,15,36,17.70
2011,08,23,15,37,9.60
2011,08,23,15,38,9.60
2011,08,23,15,39,6.40
2011,08,23,15,40,6.40
2011,08,23,15,41,8.10
2011,08,23,15,42,4.80
2011,08,23,15,43,8.10
2011,08,23,15,44,11.30
2011,08,23,15,45,6.40
2011,08,23,15,46,16.10
2011,08,23,15,47,8.10
2011,08,23,15,48,6.40
2011,08,23,15,49,17.70
2011,08,23,15,50,17.70
2011,08,23,15,51,9.60
2011,08,23,15,52,9.60
2011,08,23,15,53,6.40
2011,08,23,15,54,6.40
2011,08,23,15,55,6.40
2011,08,23,15,56,11.30
2011,08,23,15,57,6.40
2011,08,23,15,58,6.40
2011,08,23,15,59,16.10
2011,08,23,16,00,8.10
2011,08,23,16,01,6.40
2011,08,23,16,02,6.40
2011,08,23,16,03,6.40
2011,08,23,16,04,9.60
2011,08,23,16,05,9.60
2011,08,23,16,06,9.60
2011,08,23,16,07,4.80
2011,08,23,16,08,11.30
2011,08,23,16,09,9.60
2011,08,23,16,10,8.10
2011,08,23,16,11,9.60
2011,08,23,16,12,11.30
2011,08,23,16,13,8.10
2011,08,23,16,14,8.10
2011,08,23,16,15,8.10
2011,08,23,16,16,12.90
2011,08,23,16,17,6.40
2011,08,23,16,18,8.10
2011,08,23,16,19,9.60
2011,08,23,16,20,16.10
2011,08,23,16,21,17.70
2011,08,23,16,22,8.10
2011,08,23,16,23,8.10
2011,08,23,16,24,8.10
2011,08,23,16,25,1.60
2011,08,23,16,26,9.60
2011,08,23,16,27,14.50
2011,08,23,16,28,8.10
2011,08,23,16,29,9.60
2011,08,23,16,30,9.60
2011,08,23,16,31,6.40
2011,08,23,16,32,11.30
2011,08,23,16,33,8.10
2011,08,23,16,34,4.80
2011,08,23,16,35,16.10
2011,08,23,16,36,9.60
2011,08,23,16,37,4.80
2011,08,23,16,38,6.40
2011,08,23,16,39,9.60
2011,08,23,16,40,8.10
2011,08,23,16,41,1.60
2011,08,23,16,42,4.80
2011,08,23,16,43,11.30
2011,08,23,16,44,4.80
2011,08,23,16,45,11.30
2011,08,23,16,46,11.30
2011,08,23,16,47,9.60
2011,08,23,16,48,14.50
2011,08,23,16,49,14.50
2011,08,23,16,50,6.40
2011,08,23,16,51,3.20
2011,08,23,16,52,11.30
2011,08,23,16,53,6.40
2011,08,23,16,54,4.80
2011,08,23,16,55,9.60
2011,08,23,16,56,4.80
2011,08,23,16,57,4.80
2011,08,23,16,58,8.10
2011,08,23,16,59,6.40
2011,08,23,17,00,4.80
2011,08,23,17,01,11.30
2011,08,23,17,02,11.30
2011,08,23,17,03,6.40
2011,08,23,17,04,11.30
2011,08,23,17,05,9.60
2011,08,23,17,06,4.80
2011,08,23,17,07,14.50
2011,08,23,17,08,9.60
2011,08,23,17,09,8.10
2011,08,23,17,10,8.10
2011,08,23,17,11,9.60
2011,08,23,17,12,9.60
2011,08,23,17,13,11.30
2011,08,23,17,14,4.80
2011,08,23,17,15,4.80
2011,08,23,17,16,4.80
2011,08,23,17,17,4.80
2011,08,23,17,18,9.60
2011,08,23,17,19,8.10
2011,08,23,17,20,11.30
2011,08,23,17,21,6.40
2011,08,23,17,22,6.40
2011,08,23,17,23,4.80
2011,08,23,17,24,8.10
2011,08,23,17,25,8.10
2011,08,23,17,26,9.60
2011,08,23,17,27,11.30
2011,08,23,17,28,11.30
2011,08,23,17,29,8.10
2011,08,23,17,30,4.80
2011,08,23,17,31,4.80
2011,08,23,17,32,3.20
2011,08,23,17,33,3.20
2011,08,23,17,34,9.60
2011,08,23,17,35,9.60
2011,08,23,17,36,8.10
2011,08,23,17,37,11.30
2011,08,23,17,38,9.60
2011,08,23,17,39,11.30
2011,08,23,17,40,14.50
2011,08,23,17,41,4.80
2011,08,23,17,42,3.20
2011,08,23,17,43,4.80
2011,08,23,17,44,14.50
2011,08,23,17,45,9.60
2011,08,23,17,46,9.60
2011,08,23,17,47,14.50
2011,08,23,17,48,6.40
2011,08,23,17,49,9.60
2011,08,23,17,50,14.50
2011,08,23,17,51,8.10
2011,08,23,17,52,4.80
2011,08,23,17,53,3.20
2011,08,23,17,54,1.60
2011,08,23,17,55,4.80
2011,08,23,17,56,4.80
2011,08,23,17,57,1.60
2011,08,23,17,58,6.40
2011,08,23,17,59,3.20
2011,08,23,18,00,1.60
2011,08,23,18,01,3.20
2011,08,23,18,02,4.80
2011,08,23,18,03,4.80
2011,08,23,18,04,6.40
2011,08,23,18,05,8.10
2011,08,23,18,06,4.80
2011,08,23,18,07,4.80
2011,08,23,18,08,9.60
2011,08,23,18,09,3.20
2011,08,23,18,10,3.20
2011,08,23,18,11,6.40
2011,08,23,18,12,1.60
2011,08,23,18,13,1.60
2011,08,23,18,15,6.40
2011,08,23,18,16,3.20
2011,08,23,18,17,1.60
2011,08,23,18,18,1.60
2011,08,23,18,19,6.40
2011,08,23,18,20,4.80
2011,08,23,18,21,1.60
2011,08,23,18,22,1.60
2011,08,23,18,23,6.40
2011,08,23,18,24,6.40
2011,08,23,18,25,4.80
2011,08,23,18,26,3.20
2011,08,23,18,27,6.40
2011,08,23,18,28,4.80
2011,08,23,18,29,6.40
2011,08,23,18,30,4.80
2011,08,23,18,31,6.40
2011,08,23,18,32,6.40
2011,08,23,18,33,3.20
2011,08,23,18,34,4.80
2011,08,23,18,35,4.80
2011,08,23,18,36,8.10
2011,08,23,18,37,8.10
2011,08,23,18,38,3.20
2011,08,23,18,39,3.20
2011,08,23,18,40,3.20
2011,08,23,18,41,3.20
2011,08,23,18,42,3.20
2011,08,23,18,43,3.20
2011,08,23,18,44,3.20
2011,08,23,18,45,4.80
2011,08,23,18,46,4.80
2011,08,23,18,47,4.80
2011,08,23,18,48,3.20
2011,08,23,18,49,4.80
2011,08,23,18,50,6.40
2011,08,23,18,51,3.20
2011,08,23,18,52,1.60
2011,08,23,18,53,1.60
2011,08,23,18,55,4.80
2011,08,23,18,56,3.20
2011,08,23,18,57,1.60
2011,08,23,18,58,3.20
2011,08,23,18,59,1.60
2011,08,23,19,00,6.40
2011,08,23,19,01,3.20
2011,08,23,19,02,1.60
2011,08,23,19,03,3.20
2011,08,23,19,04,3.20
2011,08,23,19,06,1.60
2011,08,23,19,08,3.20
2011,08,23,19,09,3.20
2011,08,23,19,10,1.60
2011,08,23,19,11,1.60
2011,08,23,19,13,1.60
2011,08,23,19,16,4.80
2011,08,23,19,17,4.80
2011,08,23,19,18,3.20
2011,08,23,19,19,1.60
2011,08,23,19,20,1.60
2011,08,23,19,21,3.20
2011,08,23,19,22,1.60
2011,08,23,19,27,4.80
2011,08,23,19,28,3.20
2011,08,23,19,29,4.80
2011,08,23,19,30,1.60
2011,08,23,19,32,3.20
2011,08,23,19,33,1.60
2011,08,23,19,34,3.20
2011,08,23,19,35,1.60
2011,08,23,19,36,4.80
2011,08,23,19,37,4.80
2011,08,23,19,38,1.60
2011,08,23,19,39,1.60
2011,08,23,19,40,3.20
2011,08,23,19,41,1.60
2011,08,23,19,42,4.80
2011,08,23,19,43,3.20
2011,08,23,19,44,1.60
2011,08,23,19,45,3.20
2011,08,23,19,47,1.60
2011,08,23,19,48,1.60
2011,08,23,19,51,1.60
2011,08,23,19,52,1.60
2011,08,23,19,53,4.80
2011,08,23,19,54,3.20
2011,08,23,19,55,1.60
2011,08,23,19,56,1.60
2011,08,23,19,57,1.60
2011,08,23,19,58,3.20
2011,08,23,19,59,3.20
2011,08,23,20,00,3.20
2011,08,23,20,01,3.20
2011,08,23,20,02,1.60
2011,08,23,20,03,1.60
2011,08,23,20,06,3.20
2011,08,23,20,07,3.20
2011,08,23,20,08,3.20
2011,08,23,20,09,4.80
2011,08,23,20,10,3.20
2011,08,23,20,11,3.20
2011,08,23,20,12,3.20
2011,08,23,20,13,1.60
2011,08,23,20,14,3.20
2011,08,23,20,15,3.20
2011,08,23,20,16,3.20
2011,08,23,20,17,3.20
2011,08,23,20,18,3.20
2011,08,23,20,19,3.20
2011,08,23,20,21,3.20
2011,08,23,20,22,6.40
2011,08,23,20,23,4.80
2011,08,23,20,24,3.20
2011,08,23,20,25,4.80
2011,08,23,20,26,4.80
2011,08,23,20,27,3.20
2011,08,23,20,28,3.20
2011,08,23,20,29,4.80
2011,08,23,20,30,4.80
2011,08,23,20,31,4.80
2011,08,23,20,32,3.20
2011,08,23,20,33,4.80
2011,08,23,20,34,3.20
2011,08,23,20,35,1.60
2011,08,23,20,36,3.20
2011,08,23,20,37,1.60
2011,08,23,20,38,3.20
2011,08,23,20,39,1.60
2011,08,23,20,49,1.60
2011,08,23,20,57,3.20
2011,08,23,20,58,3.20
2011,08,23,21,04,1.60
2011,08,23,21,05,3.20
2011,08,23,21,06,3.20
2011,08,23,21,07,3.20
2011,08,23,21,08,4.80
2011,08,23,21,09,4.80
2011,08,23,21,10,4.80
2011,08,23,21,11,4.80
2011,08,23,21,12,4.80
2011,08,23,21,13,4.80
2011,08,23,21,14,4.80
2011,08,23,21,15,3.20
2011,08,23,21,16,4.80
2011,08,23,21,17,6.40
2011,08,23,21,18,4.80
2011,08,23,21,19,4.80
2011,08,23,21,20,3.20
2011,08,23,21,21,4.80
2011,08,23,21,22,3.20
2011,08,23,21,23,3.20
2011,08,23,21,24,3.20
2011,08,23,21,25,4.80
2011,08,23,21,26,3.20
2011,08,23,21,27,4.80
2011,08,23,21,28,3.20
2011,08,23,21,29,4.80
2011,08,23,21,30,3.20
2011,08,23,21,31,3.20
2011,08,23,21,32,4.80
2011,08,23,21,33,3.20
2011,08,23,21,34,3.20
2011,08,23,21,35,3.20
2011,08,23,21,36,3.20
2011,08,23,21,37,1.60
2011,08,23,21,38,3.20
2011,08,23,21,39,1.60
2011,08,23,21,40,1.60
2011,08,23,21,41,1.60
2011,08,23,21,42,1.60
2011,08,23,21,43,1.60
2011,08,23,21,44,1.60
2011,08,23,21,45,1.60
2011,08,23,21,46,1.60
2011,08,23,21,47,1.60
2011,08,23,21,49,1.60
2011,08,23,21,51,1.60
2011,08,23,21,52,1.60
2011,08,23,21,53,1.60
2011,08,23,21,54,1.60
2011,08,23,21,55,3.20
2011,08,23,21,56,1.60
2011,08,23,21,57,3.20
2011,08,23,21,58,3.20
2011,08,23,21,59,3.20
2011,08,23,22,00,1.60
2011,08,23,22,01,1.60
2011,08,23,22,09,1.60
2011,08,23,22,10,1.60
2011,08,23,22,18,1.60
2011,08,23,22,22,1.60
2011,08,23,22,23,3.20
2011,08,23,22,30,1.60
2011,08,23,22,32,1.60
2011,08,23,22,33,3.20
2011,08,23,22,35,1.60
2011,08,23,22,36,1.60
2011,08,23,22,37,3.20
2011,08,23,22,38,3.20
2011,08,23,22,39,3.20
2011,08,23,22,40,1.60
2011,08,23,22,41,1.60
2011,08,23,22,42,1.60
2011,08,23,22,47,1.60
2011,08,23,22,48,1.60
2011,08,23,22,50,1.60
2011,08,23,22,51,3.20
2011,08,23,22,52,3.20
2011,08,23,22,53,3.20
2011,08,23,22,54,4.80
2011,08,23,22,55,3.20
2011,08,23,22,56,3.20
2011,08,23,22,57,3.20
2011,08,23,22,58,6.40
2011,08,23,22,59,6.40
2011,08,23,23,00,8.10
2011,08,23,23,01,6.40
2011,08,23,23,02,4.80
2011,08,23,23,03,4.80
2011,08,23,23,04,3.20
2011,08,23,23,05,4.80
2011,08,23,23,06,3.20
2011,08,23,23,07,1.60
2011,08,23,23,08,1.60
2011,08,23,23,10,3.20
2011,08,23,23,11,3.20
2011,08,23,23,12,1.60
2011,08,23,23,15,1.60
2011,08,23,23,16,1.60
2011,08,23,23,17,1.60
2011,08,23,23,18,1.60
2011,08,23,23,23,1.60
2011,08,23,23,24,3.20
2011,08,23,23,25,1.60
2011,08,23,23,26,1.60
2011,08,23,23,27,4.80
2011,08,23,23,28,4.80
2011,08,23,23,29,3.20
2011,08,23,23,34,1.60
2011,08,23,23,35,3.20
2011,08,23,23,36,3.20
2011,08,23,23,37,1.60
2011,08,23,23,38,1.60
2011,08,23,23,39,3.20
2011,08,23,23,40,3.20
2011,08,23,23,41,1.60
2011,08,23,23,43,1.60
2011,08,23,23,44,1.60
2011,08,23,23,45,1.60
2011,08,23,23,46,1.60
2011,08,23,23,47,1.60
2011,08,23,23,48,1.60
2011,08,23,23,49,1.60
2011,08,23,23,53,1.60
2011,08,23,23,54,1.60
2011,08,23,23,55,1.60
2011,08,23,23,56,1.60
2011,08,23,23,57,1.60
2011,08,23,23,58,1.60
2011,08,23,23,59,1.60
